CAPE
0 0 0 0 0 0 0 20 13 0 0 0 2 0 0 0 0 0 23 86 322 56 607 260 14 827 1651 1721 1759 1628 1755 1583 1482 955 670 858 732 400 419 246 147 243 162 2
0 0 0 1 0 0 0 0 0 0 0 0 0 0 21 59 151 138 150 587 515 461 53 327 719 781 608 810 1295 1697 1795 1824 1723 1274 1215 1349 1295 1044 827 618 419 341 76 118
0 0 0 0 0 0 0 0 0 0 0 0 0 33 50 25 96 45 70 289 798 639 746 73 310 0 304 0 0 0 1499 1918 2039 1926 1527 1634 1630 1597 1024 374 347 386 192 110
0 0 0 0 0 0 0 0 0 0 0 0 0 15 15 14 0 0 6 84 350 571 255 44 16 0 32 0 0 0 1667 1884 1937 1836 1636 1643 1193 881 399 22 147 22 59 45
0 0 0 0 0 0 0 2 0 7 0 3 2 1 38 1 0 5 2 23 70 216 478 451 275 43 1 0 270 579 9 1676 2081 1990 1656 1338 1251 631 277 76 55 61 45 27
0 0 0 0 0 0 0 21 23 27 0 5 0 0 4 0 0 0 1 0 0 34 152 129 23 29 25 3 57 47 318 1319 1703 1475 1413 1620 1162 664 353 213 173 22 21 26
0 0 0 0 0 0 2 2 0 0 0 0 0 0 0 0 0 0 0 0 0 5 14 0 0 0 0 0 0 568 693 1450 1586 981 1023 1210 622 234 30 0 10 8 18 3
11 1 2 0 0 0 16 0 0 4 51 3 5 0 0 0 0 0 0 3 8 87 62 54 0 0 0 0 1 67 852 621 1157 504 537 169 55 0 0 0 10 4 3 0
3 10 0 0 1 1 56 8 0 0 86 54 0 0 0 0 0 0 0 11 3 5 97 16 2 0 0 3 0 82 0 30 126 170 20 7 0 0 0 0 0 0 0 1
14 2 0 12 39 1 0 10 52 2 2 0 0 0 0 0 7 0 3 11 0 0 22 22 3 32 122 49 0 0 0 0 0 0 0 0 0 0 0 0 0 0 1 0
0 32 102 9 4 8 22 9 60 48 5 0 5 4 0 0 14 0 0 0 0 0 20 0 79 104 60 4 0 0 0 0 0 0 0 0 0 0 0 0 0 0 1 4
105 121 1 0 0 6 0 43 21 0 10 15 27 11 0 0 0 0 1 0 0 10 23 4 18 108 16 0 0 0 0 0 0 0 0 0 0 0 0 0 0 0 0 0
65 38 10 2 46 0 0 0 0 7 55 62 13 38 46 0 0 0 10 16 47 36 47 16 0 0 11 0 0 0 0 0 0 0 0 0 0 0 0 0 0 0 0 0
0 0 0 0 2 0 2 17 9 13 34 4 13 25 28 3 3 11 0 36 16 36 9 0 0 0 0 0 0 0 0 0 0 0 0 0 0 0 0 0 0 0 0 0
153 0 43 4 0 3 75 24 59 19 4 0 0 1 6 0 2 0 14 0 11 36 0 0 0 0 0 0 0 0 0 0 0 0 0 0 0 0 0 0 0 0 0 0
311 61 202 169 45 56 16 11 0 0 0 0 0 7 0 0 0 0 1 7 15 3 0 0 0 0 0 0 0 0 0 0 0 0 0 0 0 0 0 0 0 0 0 0
409 252 98 109 69 25 26 2 23 25 13 9 2 3 12 17 2 3 17 0 13 0 0 0 0 0 0 0 0 0 0 0 0 0 0 0 0 0 0 0 0 0 0 0
183 137 116 15 11 0 193 73 53 17 21 98 84 130 71 1 8 0 0 0 0 0 0 0 0 0 0 0 0 0 0 0 0 0 0 0 0 0 4 2 1 0 0 0
11 22 36 98 106 93 47 34 51 3 107 84 87 78 81 88 31 50 0 0 0 0 0 0 0 0 0 0 0 1 0 0 0 0 0 1 0 3 0 0 0 0 0 4
103 94 73 12 1 12 103 84 123 37 174 123 126 165 166 154 19 3 0 0 0 0 0 0 0 0 0 0 0 0 0 0 1 0 0 2 0 0 0 0 0 0 4 11
131 9 0 0 0 25 5 30 80 37 160 159 211 183 149 40 28 0 0 0 0 0 0 0 0 0 1 0 0 0 0 1 0 0 1 4 0 0 0 1 0 0 2 0
133 51 3 0 0 0 0 13 6 541 246 32 216 137 78 51 1 0 0 0 0 0 0 0 0 0 2 0 0 2 1 0 0 1 2 0 2 0 3 1 3 0 0 1
81 122 97 19 1 0 0 0 93 47 125 333 123 14 40 0 0 0 0 0 0 0 0 0 0 0 2 1 0 0 2 0 0 0 7 11 3 10 0 0 0 0 0 0
81 29 0 0 0 2 7 10 170 91 219 241 131 12 0 0 0 0 0 0 0 0 0 0 0 3 3 0 0 0 0 0 0 2 8 13 3 0 11 0 0 0 0 0
1 1 0 0 0 5 15 115 217 173 84 76 10 0 0 0 0 0 0 0 0 0 0 0 0 5 0 0 0 0 0 0 0 0 1 4 4 0 3 0 0 0 0 0
16 0 0 0 0 0 0 146 204 145 69 29 13 0 0 0 0 0 0 0 0 0 0 0 0 1 1 0 0 0 0 0 0 2 4 7 9 0 0 0 0 0 0 0
CIN
0 0 0 0 0 0 0 -14 -41 0 0 0 -84 0 0 0 -34 0 -184 -176 -264 -428 -331 -294 -179 -105 -40 -58 -83 -89 -75 -83 -71 -89 -81 -46 -62 -77 -60 -76 -102 -98 -82 -34
0 0 0 -15 0 0 0 -19 0 -46 0 0 0 0 -88 -126 -120 -96 -94 -98 -184 -314 -362 -258 -176 -98 -201 -87 -42 -19 -31 -71 -54 -69 -53 -36 -27 -45 -53 -55 -54 -50 -55 -53
0 0 0 0 0 0 0 0 0 0 0 0 -8 -60 -92 -133 -126 -91 -96 -153 -148 -131 -227 -270 -222 0 -278 0 0 0 -35 -50 -51 -36 -41 -28 -44 -33 -28 -58 -66 -64 -59 -78
0 0 0 0 0 0 0 0 0 0 0 0 0 -18 -81 -121 0 -6 -196 -109 -81 -149 -298 -276 -233 0 -159 0 0 0 -45 -11 -50 -38 -37 -46 -28 -32 -91 -140 -113 -108 -102 -102
0 -3 0 0 0 0 0 -40 -2 -55 0 -37 -30 -1 -50 -4 0 -53 -68 -37 -35 -102 -158 -191 -191 -153 -69 0 -132 -70 -55 -12 -37 -49 -48 -58 -54 -102 -121 -117 -100 -130 -128 -145
0 0 0 0 0 0 0 -61 -61 -46 0 -32 0 -11 0 0 0 0 -61 0 0 -147 -294 -358 -380 -373 -375 -264 -289 -221 -146 -28 -46 -42 -29 -50 -66 -106 -112 -115 -130 -128 -108 -87
0 0 0 0 0 0 -27 -30 0 0 -2 -1 0 0 0 0 0 0 0 0 0 -156 -266 0 0 0 0 0 0 -189 -94 -17 -16 -28 -19 -12 -46 -89 -125 0 -101 -101 -102 -61
-46 -9 -32 0 0 0 -46 0 -4 -47 -25 -29 -21 0 0 0 0 0 0 -100 -118 -194 -250 -287 0 0 0 0 -136 -176 -26 -24 -8 -48 -48 -99 -158 0 0 0 -113 -103 -82 -9
-28 -28 0 0 -32 -35 -55 -101 -15 0 -47 -26 0 0 0 0 -5 0 -1 -93 -85 -124 -203 -203 -73 0 0 -339 0 -69 0 -68 -69 -135 -217 -204 0 0 0 0 0 0 0 -26
-38 -26 -9 -26 -27 -19 0 -161 -77 -57 -66 -4 0 0 0 0 -26 -9 -79 -58 0 0 -103 -155 -67 -117 -144 -173 0 0 0 0 0 0 0 0 0 0 0 0 0 0 -32 -20
0 -15 -17 -15 -102 -113 -88 -55 -60 -35 -39 0 -18 -22 0 0 -63 0 0 0 0 0 -240 0 -156 -185 -153 -126 0 0 0 0 0 0 0 0 0 0 0 0 0 0 -34 -22
-47 -35 -4 0 0 -117 -5 -48 -54 -1 -18 -35 -12 -27 0 0 0 0 -170 0 0 -98 -183 -151 -156 -112 -178 0 0 0 0 0 0 0 0 0 0 0 0 0 0 0 0 0
-59 -50 -82 -16 -49 0 0 0 0 -60 -46 -24 -12 -18 -67 0 -37 0 -286 -187 -141 -57 -150 -118 0 0 -152 0 0 0 0 0 0 0 0 0 0 0 0 0 0 0 0 0
0 0 0 0 -18 -17 -12 -38 -35 -59 -21 -9 -23 -49 -108 -217 -125 -291 0 -266 -67 -110 -126 0 0 0 0 0 0 0 0 0 0 0 0 0 0 0 0 0 0 0 0 0
-50 0 -19 -29 0 -22 -65 -32 -37 -60 -92 0 0 -67 -212 0 -149 0 -209 -50 -134 -151 0 0 0 0 0 0 0 0 0 0 0 0 0 0 0 0 0 0 0 0 0 0
-41 -16 -18 -12 -18 -12 -10 -31 0 0 0 0 0 -116 0 0 0 0 -17 -139 -71 -22 0 0 0 0 0 0 0 0 0 -23 0 0 0 0 0 0 0 0 -1 0 0 0
-26 -26 -26 -14 -15 -13 -12 -5 -47 -48 -64 -80 -21 -76 -194 -160 -66 -47 -143 -16 -115 0 0 0 0 0 0 0 0 0 0 0 0 0 0 0 0 0 0 -2 0 0 0 0
-24 -24 -22 -12 -6 0 -41 -44 -16 -59 -72 -71 -109 -104 -126 -25 -99 0 0 0 0 0 0 0 0 0 0 0 0 0 0 0 0 0 0 -6 0 0 -8 -4 -4 0 0 0
-49 -41 -39 -18 -4 -22 -48 -63 -47 -40 -50 -65 -57 -49 -67 -96 -145 -118 0 0 0 0 0 0 0 0 0 0 0 -25 0 0 0 0 0 -11 0 -11 0 -2 0 0 0 -12
-51 -63 -35 -48 -32 -35 -68 -110 -86 -72 -23 -52 -40 -44 -47 -37 -73 -23 0 0 0 0 0 0 0 0 0 0 0 0 0 0 -29 0 -9 -8 0 0 -4 0 0 0 -10 -7
-43 -55 0 0 0 -59 -185 -125 -100 -54 -29 -31 -29 -31 -67 -99 -102 0 0 0 0 0 0 0 0 0 -33 0 0 0 -10 -38 0 -1 -3 -12 0 0 0 -16 0 -6 -21 -7
-49 -19 -24 0 0 0 0 -99 -21 -30 -41 -37 -20 -38 -99 -119 -29 0 0 0 0 0 0 0 0 0 -22 0 -1 -8 -21 0 0 -9 -15 0 -15 0 -27 -32 -26 0 0 -9
-22 -7 -16 -19 -3 -2 -5 -5 -33 -84 -49 -13 -44 -151 -133 0 0 0 0 0 0 0 0 0 0 0 -24 -14 -5 0 -30 0 0 -3 -36 -28 -40 -30 0 -4 0 0 0 0
-23 -21 0 0 0 -38 -35 -36 -38 -25 -30 -29 -43 -150 0 0 0 0 0 0 0 0 0 0 0 -10 -21 0 0 0 0 0 0 -25 -27 -30 -42 -6 -35 0 0 0 0 0
-2 -10 0 0 0 -57 -60 -36 -34 -31 -52 -76 -92 0 0 0 0 0 0 0 0 0 0 0 0 -10 0 0 0 0 0 0 0 0 -21 -34 -39 -21 -29 0 0 0 0 0
-18 0 0 0 0 0 0 -42 -39 -48 -103 -156 -207 0 0 0 0 0 0 0 0 0 0 0 0 -6 -17 -9 -28 0 0 0 0 -39 -36 -31 -34 -4 -5 0 0 0 0 0
Wind_Speed
20 19 14 9 11 6 20 22 16 12 20 25 24 23 27 16 20 24 15 13 16 14 13 11 7 17 10 10 13 18 16 16 17 16 17 17 16 17 19 19 20 17 17 19
22 20 17 14 20 21 22 23 23 25 30 32 31 29 18 20 22 25 29 23 15 15 10 12 14 19 30 31 16 24 8 10 13 14 17 18 18 20 19 19 19 18 18 23
20 19 8 19 16 15 21 24 26 30 32 27 22 23 20 22 24 26 23 16 15 13 11 14 15 16 22 25 16 10 4 6 10 14 18 19 22 22 25 25 24 23 23 23
23 2 20 19 7 16 22 24 28 28 25 19 26 16 24 23 26 26 17 10 12 13 15 12 15 19 19 17 18 10 7 7 14 14 19 21 21 24 27 26 26 27 29 29
21 14 17 17 18 20 20 29 19 8 8 21 30 19 24 19 24 24 19 21 11 15 12 13 19 20 18 19 17 19 29 11 15 15 15 18 24 26 27 29 29 32 30 30
20 17 16 18 22 19 22 27 25 25 18 20 28 14 19 26 29 24 18 24 34 19 22 21 19 17 18 19 17 17 11 13 14 14 13 19 26 28 31 32 32 33 34 36
21 18 15 19 21 22 25 27 24 23 21 17 25 21 17 21 24 26 30 31 34 30 25 22 21 22 24 23 26 25 16 15 17 19 19 23 26 30 33 32 33 37 39 38
18 12 15 16 19 21 25 25 21 20 20 20 21 22 19 18 27 28 30 31 31 31 26 24 23 25 25 26 27 29 26 26 21 24 24 27 30 32 32 34 35 38 38 37
19 12 20 17 22 20 23 26 13 18 20 21 22 19 21 22 27 28 30 31 32 31 27 27 25 26 29 29 29 31 31 33 33 30 30 31 33 34 35 35 36 36 36 37
13 16 14 15 19 24 23 19 21 20 18 20 17 22 24 26 28 29 29 30 28 30 30 32 32 33 32 33 34 35 33 33 31 31 30 31 32 33 34 35 36 37 39 39
16 14 17 16 20 24 23 20 12 13 16 19 25 21 18 24 26 28 34 33 33 31 32 32 31 32 33 35 35 34 35 35 35 31 32 33 34 36 37 38 39 40 38 37
15 13 16 14 15 20 17 12 13 16 17 25 22 20 24 26 29 29 30 36 40 26 29 31 32 31 35 37 36 35 36 37 37 33 34 35 36 37 38 39 39 37 36 33
16 15 11 13 23 21 17 13 18 18 19 16 20 18 23 27 29 30 31 32 28 23 33 34 35 37 36 38 36 37 37 37 36 35 35 36 38 39 40 39 37 37 35 30
12 15 15 15 15 16 27 6 13 23 18 15 19 21 25 24 26 25 26 24 22 31 32 34 38 37 38 40 37 36 36 36 37 35 36 37 38 38 39 37 37 36 32 30
12 12 15 13 16 15 12 20 15 13 13 17 25 24 23 24 24 24 25 25 29 30 34 35 38 37 40 39 37 34 34 35 35 35 37 36 36 37 36 34 34 34 32 30
13 13 18 16 14 16 20 25 18 20 20 22 25 25 19 20 22 24 25 29 30 31 33 36 38 37 38 38 37 33 34 35 34 35 36 35 35 35 34 34 33 31 29 29
11 16 20 17 26 25 27 17 17 21 24 25 25 20 17 23 24 23 22 27 26 32 34 37 37 36 36 36 36 33 33 33 34 36 35 34 34 33 32 30 31 30 29 27
15 17 16 18 23 23 14 21 20 21 23 24 24 24 22 21 20 22 23 26 30 32 34 36 34 33 33 34 32 31 32 33 34 34 34 33 33 31 30 29 30 30 29 29
12 15 20 19 19 13 21 21 18 23 23 23 21 20 20 19 22 22 22 26 29 31 32 34 31 31 32 32 31 31 32 32 33 33 32 33 30 30 28 28 28 27 26 26
15 18 18 20 19 18 16 18 13 18 20 21 22 23 23 21 22 20 23 26 28 30 32 33 30 31 32 31 31 32 32 32 33 31 31 31 28 26 27 26 24 24 23 24
17 18 18 17 20 14 11 10 19 17 16 20 19 19 20 20 18 18 23 26 28 30 31 32 29 30 30 31 31 31 31 31 30 30 28 27 28 24 24 24 24 24 25 26
12 12 14 17 19 17 5 10 16 15 19 21 17 16 18 18 19 22 24 27 28 31 30 31 27 28 29 30 30 30 30 28 29 27 28 27 25 24 24 23 24 26 27 25
15 9 14 15 15 13 11 12 12 14 19 16 16 18 18 18 21 23 25 28 28 30 28 29 28 26 27 28 28 29 27 28 27 26 25 25 25 23 25 23 23 22 23 24
16 13 15 16 16 12 12 12 11 14 15 16 16 16 17 19 21 23 26 28 29 30 27 28 28 25 26 27 27 28 28 26 26 25 25 23 24 22 23 25 24 23 22 22
15 15 14 14 18 16 18 15 13 14 15 16 16 16 17 19 21 23 26 27 28 27 27 28 28 25 25 26 27 27 28 27 27 26 26 25 23 22 22 22 23 22 21 21
20 16 16 13 13 15 18 13 12 12 12 12 12 13 16 18 20 23 25 25 26 26 27 28 26 24 24 25 24 26 27 26 27 26 25 25 23 21 21 19 18 18 19 20
Wind_Direction
217 237 202 77 183 128 291 357 59 80 3 345 353 360 356 40 12 357 24 23 33 58 63 79 61 23 50 46 20 19 24 20 13 17 20 15 13 7 1 3 2 3 357 352
240 219 217 38 332 2 319 339 351 327 329 327 308 319 4 9 6 360 343 10 51 54 70 64 57 38 5 343 3 355 50 43 22 22 19 18 17 6 4 2 1 357 354 347
213 221 280 327 326 307 11 342 326 321 309 311 334 354 358 347 2 4 4 2 41 44 44 23 35 30 19 32 17 1 228 41 39 21 16 17 8 4 1 0 359 359 354 349
248 48 320 248 54 0 339 313 311 324 336 358 354 4 346 351 7 3 23 49 24 26 20 27 23 22 29 36 9 38 161 57 29 24 17 11 9 4 2 3 1 355 351 350
231 5 352 11 6 352 356 315 269 249 206 343 316 347 357 21 17 22 43 31 33 31 32 28 29 37 45 27 22 15 279 45 34 22 18 17 6 3 359 357 352 352 350 351
237 302 358 355 336 15 3 318 305 336 8 6 343 17 5 3 13 21 14 13 353 35 32 40 48 52 41 29 23 352 21 -0 20 21 18 8 360 0 356 353 352 350 346 343
262 309 353 341 331 2 350 338 344 350 6 27 7 17 23 18 8 15 15 22 15 30 34 35 28 15 11 10 8 11 12 8 16 13 355 355 359 359 357 356 352 347 345 344
327 356 285 353 353 5 7 7 8 9 13 15 3 359 29 38 5 5 12 10 22 21 22 22 23 23 20 16 13 11 13 359 7 1 4 4 3 359 358 354 351 348 347 346
337 312 282 10 10 6 356 344 39 28 334 9 11 19 12 17 12 5 3 7 8 18 29 30 29 23 17 16 13 10 13 8 7 11 5 3 1 358 355 355 353 353 352 350
27 13 172 14 11 8 12 26 3 28 28 17 24 24 10 4 0 4 9 8 11 21 31 27 25 19 12 17 17 15 15 13 11 7 5 3 1 2 359 358 356 355 352 351
327 359 348 355 0 354 3 15 51 46 45 18 357 8 21 17 22 17 8 12 6 16 27 23 25 18 12 12 11 10 9 6 3 7 7 6 4 1 1 359 357 356 357 358
329 350 355 19 27 8 8 47 35 15 11 1 6 9 20 22 16 14 13 2 354 356 24 19 18 19 12 10 9 11 10 7 8 13 9 8 5 4 2 1 1 3 4 10
326 344 12 9 345 352 21 28 22 32 8 13 4 15 26 22 23 25 24 17 4 24 25 20 11 6 8 6 9 8 10 10 12 12 12 8 6 5 4 5 8 8 15 22
351 345 348 357 9 2 315 69 34 14 358 23 20 12 8 17 16 19 16 18 19 11 16 13 5 4 5 3 7 11 14 14 13 14 12 11 10 9 9 12 14 17 25 32
1 359 355 9 6 9 30 12 15 359 9 2 2 8 14 13 15 16 16 15 9 7 5 5 5 9 4 7 12 16 17 16 17 18 14 14 14 15 15 18 19 23 30 36
1 9 351 358 7 10 359 351 7 12 16 4 7 5 26 26 23 20 20 10 12 15 9 7 7 8 9 12 13 18 20 19 21 18 15 17 17 17 19 22 24 29 36 38
29 358 344 347 321 340 342 11 13 11 10 8 5 18 31 20 22 26 29 21 28 12 10 7 8 12 13 15 16 21 21 21 21 18 18 21 20 20 24 29 29 31 36 43
349 348 352 346 337 335 9 5 9 11 2 13 15 21 23 27 40 38 33 26 15 10 9 10 16 17 19 19 22 23 22 23 21 21 22 23 23 26 29 33 33 37 40 40
2 2 350 346 338 356 352 351 7 350 4 16 16 23 26 39 38 32 36 26 18 19 18 17 22 21 21 22 24 23 22 23 24 24 26 25 29 29 35 36 40 46 51 55
358 352 357 350 341 342 347 7 30 350 349 11 16 8 3 9 11 31 25 25 23 23 21 18 25 22 22 25 24 24 25 27 26 28 28 29 33 37 40 44 51 56 61 59
334 344 350 353 350 345 353 23 355 352 357 2 8 10 14 20 35 35 24 22 24 20 19 18 25 25 27 26 27 27 28 30 30 31 33 35 38 47 47 50 57 59 60 63
344 359 0 354 350 342 26 6 356 358 350 351 7 22 28 35 34 24 22 18 19 17 19 19 26 27 27 26 27 28 30 34 34 36 38 40 44 48 50 58 60 58 59 69
338 354 359 357 358 16 27 16 17 14 357 9 10 8 21 23 20 21 19 16 18 16 21 21 25 27 27 28 30 30 33 32 36 38 41 43 46 51 53 59 62 70 74 76
351 359 351 352 5 33 22 22 43 37 27 22 19 18 19 20 19 19 17 16 14 15 23 22 22 27 29 30 32 33 33 36 37 39 42 45 47 57 60 59 65 74 77 79
345 348 345 352 352 4 8 26 31 19 17 19 24 28 22 18 17 17 15 16 17 22 25 23 22 31 31 31 34 34 34 38 39 44 45 45 54 60 68 73 78 81 86 89
336 338 339 347 4 1 347 1 22 19 23 31 38 30 23 24 21 17 16 20 22 23 23 23 28 32 32 32 36 34 35 41 42 45 47 48 58 66 71 85 95 93 93 97